Temp
83 82 81 78 78 78 79 79 81 79 81 76 75 74 74 73 72 71 70 69 67 66 65 63 63 63 62 63 62 61 61 60 58 60 61 63 63 63 66 65 67 65 64
84 83 81 81 80 80 81 79 80 79 79 75 74 73 74 73 72 72 71 70 67 65 64 63 63 68 62 62 61 61 59 59 59 56 59 61 60 62 62 63 68 72 64
85 83 82 81 81 81 80 79 80 79 77 74 73 74 74 73 73 71 71 69 67 66 65 64 63 63 61 61 60 60 59 62 59 58 57 58 58 60 60 61 62 63 70
86 84 82 82 82 82 79 79 79 79 75 73 73 75 74 74 72 73 73 70 68 67 66 65 66 65 62 61 61 60 59 59 58 57 56 56 57 58 59 57 58 59 60
85 84 83 83 81 79 79 79 79 79 73 71 72 68 73 72 73 71 72 71 69 66 66 67 67 68 69 66 61 58 58 56 56 55 54 54 54 56 55 56 54 57 59
84 83 79 79 79 79 78 78 78 74 71 67 68 72 72 73 71 71 72 69 70 68 67 67 66 70 68 70 69 68 62 56 55 54 53 52 55 55 56 56 54 53 53
78 78 79 80 81 77 72 72 72 71 69 67 68 70 70 68 68 69 71 68 70 69 68 66 67 71 67 65 67 68 67 67 65 57 54 54 55 57 57 56 55 54 53
79 79 80 79 71 71 71 70 70 70 67 66 67 68 67 67 67 67 70 70 71 69 68 67 67 66 63 62 59 58 59 59 60 63 58 59 59 60 58 58 57 55 56
78 78 76 73 71 71 70 69 68 67 66 67 67 67 66 65 65 66 67 69 67 67 69 69 65 61 65 66 60 59 59 60 66 64 64 64 64 65 63 57 58 58 52
77 72 72 72 71 71 70 68 66 66 65 67 68 66 65 66 63 63 65 65 63 65 66 64 66 62 62 63 58 57 56 58 58 58 58 60 62 61 65 61 60 56 52
73 72 71 72 71 71 70 69 67 66 65 66 65 64 65 65 60 61 64 63 65 63 62 61 61 61 59 60 60 57 58 57 60 56 56 57 61 59 59 57 57 56 54
73 72 71 71 72 72 72 70 69 68 68 66 63 61 61 61 60 60 61 63 64 61 60 62 61 59 57 59 59 59 60 61 55 54 57 58 55 57 58 58 57 57 57
74 72 69 70 71 70 69 68 67 67 68 65 63 61 58 59 58 59 61 63 62 61 60 60 60 58 58 58 59 59 60 55 54 52 54 55 56 58 58 57 57 57 56
73 70 70 70 69 69 68 67 67 67 68 65 64 60 57 57 57 58 59 59 62 61 63 60 60 60 59 58 59 59 56 55 55 56 55 56 57 56 55 55 53 52 51
71 71 70 67 68 67 62 62 68 68 69 68 66 63 60 58 62 59 58 58 59 59 60 57 55 55 56 58 58 59 57 56 56 56 56 56 55 55 54 55 55 51 50
71 71 70 68 70 65 64 62 53 54 58 59 59 63 62 62 56 54 53 54 56 56 57 56 56 57 57 58 58 58 58 59 57 57 55 54 54 53 53 57 58 56 50
70 70 70 69 67 65 64 65 61 59 51 50 54 56 58 57 53 51 50 51 52 55 58 56 58 58 58 62 58 57 56 56 56 56 54 54 54 53 52 55 58 56 55
70 61 67 68 67 69 69 67 64 64 64 60 51 54 52 50 49 49 49 54 57 56 56 57 58 57 60 57 56 56 55 54 54 53 53 53 53 52 52 57 56 55 52
71 69 69 66 66 68 69 68 66 63 63 61 56 52 48 46 46 48 50 58 56 56 57 58 58 59 57 57 56 56 56 54 53 53 52 52 52 54 56 56 55 53 53
71 66 67 68 66 68 67 68 66 65 62 60 58 57 53 54 55 55 55 56 58 59 59 60 59 58 58 56 55 55 54 53 52 51 51 50 50 54 56 55 54 53 48
68 67 67 69 67 69 68 68 69 65 62 61 61 58 55 61 59 58 57 58 58 59 60 60 59 58 57 56 55 54 53 52 51 50 50 50 51 52 55 55 55 54 50
68 67 66 66 67 68 68 67 66 65 64 61 61 60 52 60 62 62 64 61 62 63 61 60 59 58 56 55 54 53 52 51 51 50 50 50 50 51 53 55 55 54 49
67 67 66 67 66 64 66 67 65 65 63 63 64 62 61 63 63 66 63 64 64 62 61 60 58 56 56 55 54 53 51 50 51 51 50 50 50 54 54 53 54 49 49
69 68 66 66 65 65 66 67 65 60 63 63 63 61 63 66 66 67 65 68 65 62 61 59 58 56 55 54 52 49 47 47 49 49 49 49 48 49 50 50 51 50 52
68 65 65 64 64 65 64 65 64 63 63 64 64 68 65 68 67 67 65 65 63 61 61 59 57 56 55 53 50 47 38 37 43 39 45 47 48 49 49 49 50 52 54
66 66 65 65 64 65 65 65 63 65 61 64 70 66 65 64 68 66 65 64 63 61 59 58 57 54 53 50 47 37 32 35 38 34 37 42 45 47 48 50 51 51 53
MSLP
1008.14 1008.64 1009.24 1009.87 1010.30 1010.63 1010.97 1011.22 1011.48 1012.08 1012.64 1013.14 1013.46 1014.03 1014.44 1015.14 1015.68 1015.89 1016.43 1016.87 1017.41 1017.86 1018.15 1018.42 1018.64 1018.50 1018.35 1018.48 1018.65 1018.84 1019.24 1019.28 1020.06 1019.93 1019.55 1019.56 1019.66 1019.48 1019.18 1018.99 1018.93 1019.08 1019.00
1007.35 1007.93 1008.43 1008.85 1009.46 1010.01 1010.43 1010.77 1011.02 1011.65 1012.07 1012.46 1013.44 1014.15 1014.72 1015.28 1015.63 1016.05 1016.78 1017.32 1017.67 1018.25 1018.70 1018.60 1018.82 1018.73 1018.99 1018.90 1019.00 1019.39 1019.43 1019.31 1019.75 1020.27 1020.05 1019.75 1019.77 1019.49 1019.14 1018.88 1018.66 1018.48 1018.74
1006.68 1007.23 1007.92 1008.44 1008.80 1009.25 1009.68 1010.27 1010.88 1011.31 1011.86 1013.07 1014.41 1015.21 1015.62 1016.14 1015.85 1015.70 1015.88 1016.96 1017.92 1018.24 1018.43 1018.76 1018.72 1018.91 1019.31 1019.44 1019.41 1019.54 1019.74 1019.52 1019.49 1019.82 1019.96 1019.74 1019.74 1019.70 1019.62 1019.34 1019.24 1018.90 1018.54
1005.82 1006.49 1007.16 1007.58 1007.95 1008.51 1009.17 1009.66 1010.26 1010.81 1011.98 1014.01 1015.04 1014.45 1014.66 1015.79 1016.43 1015.97 1015.63 1016.42 1017.28 1018.04 1018.41 1018.76 1019.04 1018.93 1019.28 1019.36 1019.76 1019.82 1019.87 1020.10 1020.12 1020.26 1020.19 1020.46 1020.13 1019.78 1019.75 1020.10 1019.80 1019.39 1019.17
1005.09 1005.88 1006.37 1007.10 1007.67 1008.31 1008.61 1009.01 1009.54 1010.53 1012.67 1014.04 1012.83 1011.85 1014.20 1014.56 1015.79 1015.13 1014.88 1015.91 1016.65 1017.43 1017.99 1018.43 1018.93 1018.72 1019.43 1019.12 1019.47 1019.91 1019.88 1020.06 1020.18 1020.52 1020.83 1020.68 1020.79 1020.45 1020.33 1020.24 1020.25 1020.04 1019.26
1004.63 1005.25 1006.14 1006.84 1007.48 1007.82 1008.26 1008.91 1009.36 1010.26 1011.82 1012.25 1012.43 1011.89 1013.76 1014.12 1014.99 1015.40 1015.44 1016.17 1016.66 1017.21 1017.76 1018.31 1018.65 1019.02 1019.21 1019.39 1019.45 1019.65 1019.82 1020.21 1020.27 1020.53 1020.71 1020.94 1020.60 1020.64 1020.52 1020.70 1020.62 1020.55 1020.11
1004.56 1005.30 1005.97 1006.56 1007.07 1007.75 1008.48 1008.94 1009.41 1010.48 1010.98 1012.36 1012.92 1012.98 1013.55 1014.46 1014.56 1014.78 1015.57 1015.91 1016.49 1016.75 1017.33 1018.04 1018.77 1019.01 1019.19 1019.56 1019.73 1019.62 1019.87 1019.81 1019.83 1020.16 1020.42 1020.37 1020.38 1019.84 1019.94 1020.25 1020.39 1020.40 1020.11
1004.44 1005.18 1005.73 1006.28 1007.08 1007.69 1008.56 1009.31 1009.78 1010.39 1011.56 1012.46 1012.39 1012.70 1013.24 1013.96 1014.21 1014.61 1015.53 1015.86 1016.40 1016.61 1017.15 1018.13 1018.47 1018.84 1019.21 1019.57 1019.57 1019.68 1019.67 1019.53 1019.48 1019.53 1019.53 1019.56 1019.50 1019.29 1019.33 1019.48 1019.65 1019.87 1019.53
1004.51 1005.04 1005.67 1006.28 1007.21 1008.01 1008.94 1009.51 1010.38 1010.72 1011.58 1012.26 1012.43 1012.86 1013.49 1014.10 1014.32 1014.85 1015.54 1016.12 1016.60 1017.11 1017.59 1018.02 1018.47 1018.82 1019.06 1019.33 1019.53 1019.67 1019.41 1018.99 1018.51 1018.54 1018.84 1019.02 1018.77 1018.71 1018.72 1019.16 1019.39 1019.60 1019.68
1004.83 1005.63 1006.15 1006.67 1007.30 1008.24 1009.00 1009.76 1010.42 1010.90 1011.50 1011.97 1012.70 1012.98 1013.52 1014.18 1014.70 1015.13 1015.66 1016.06 1016.80 1017.25 1017.69 1017.96 1018.22 1018.73 1019.08 1019.32 1019.46 1019.53 1019.38 1019.08 1018.71 1018.54 1018.49 1018.79 1018.64 1018.29 1017.55 1017.90 1018.20 1018.91 1019.32
1005.39 1005.85 1006.47 1007.16 1007.64 1008.20 1009.14 1009.95 1010.73 1011.50 1012.03 1012.07 1012.50 1013.20 1013.66 1014.26 1014.89 1015.32 1015.48 1016.13 1016.71 1017.26 1017.75 1018.01 1018.34 1018.80 1018.96 1018.93 1019.00 1019.03 1019.04 1018.74 1018.65 1018.61 1018.68 1018.67 1018.74 1018.37 1017.88 1017.72 1017.80 1018.21 1018.57
1005.80 1006.30 1006.98 1007.50 1007.78 1008.45 1009.06 1010.00 1010.63 1011.01 1011.57 1012.49 1013.04 1013.64 1014.06 1014.59 1015.09 1015.44 1015.71 1016.02 1016.53 1017.16 1017.66 1017.65 1018.05 1018.57 1018.79 1018.66 1018.73 1018.54 1018.55 1018.65 1018.48 1018.66 1018.56 1018.66 1018.92 1018.44 1017.96 1017.90 1017.88 1018.02 1018.15
1006.45 1007.02 1007.46 1007.90 1008.20 1008.67 1009.40 1010.15 1010.68 1011.52 1011.73 1012.40 1013.02 1013.72 1014.38 1014.80 1015.17 1015.44 1015.81 1016.01 1016.49 1016.95 1017.16 1017.19 1017.49 1018.27 1018.37 1018.31 1018.12 1018.08 1018.21 1018.34 1018.44 1018.66 1018.53 1018.74 1018.48 1017.95 1017.80 1017.98 1018.03 1018.05 1018.13
1006.85 1007.56 1008.03 1008.39 1008.93 1009.35 1009.69 1010.41 1010.73 1010.97 1011.63 1012.29 1012.92 1013.60 1014.22 1014.80 1015.17 1015.50 1015.92 1016.10 1016.62 1017.07 1017.26 1017.35 1017.65 1017.92 1017.94 1017.91 1018.06 1017.51 1017.58 1017.63 1017.75 1017.93 1018.22 1018.14 1017.92 1017.79 1017.88 1018.02 1018.29 1018.42 1018.64
1007.31 1007.73 1008.47 1008.92 1009.13 1009.84 1010.35 1010.69 1010.78 1010.69 1011.06 1011.70 1012.39 1013.05 1013.65 1014.36 1014.61 1015.09 1015.68 1016.13 1016.52 1016.89 1017.20 1017.65 1018.02 1017.99 1017.86 1017.67 1017.56 1017.09 1016.85 1016.97 1017.39 1017.46 1017.77 1018.07 1017.95 1017.79 1017.82 1017.80 1017.97 1018.36 1018.64
1007.69 1007.88 1008.25 1008.77 1009.26 1009.78 1010.32 1011.04 1011.10 1010.97 1010.99 1011.39 1011.86 1012.41 1013.25 1013.48 1014.05 1014.84 1015.41 1015.90 1016.37 1016.68 1017.30 1017.52 1017.60 1017.32 1017.39 1017.22 1017.22 1016.97 1016.84 1016.93 1017.03 1017.16 1017.49 1017.71 1017.89 1017.86 1017.81 1017.60 1017.58 1017.84 1018.17
1007.45 1007.78 1007.90 1008.16 1008.84 1009.43 1009.93 1010.50 1011.29 1011.83 1011.52 1011.58 1011.73 1012.09 1012.72 1013.09 1013.87 1014.58 1015.15 1015.84 1016.20 1016.58 1016.85 1016.95 1016.98 1016.68 1016.70 1016.95 1016.94 1016.93 1017.12 1017.09 1016.92 1017.00 1017.36 1017.58 1017.63 1017.67 1017.64 1017.56 1017.47 1017.61 1017.82
1007.30 1007.40 1007.68 1007.93 1008.25 1008.94 1009.49 1010.12 1010.92 1011.49 1011.76 1012.23 1012.45 1012.47 1012.58 1013.02 1013.73 1014.28 1015.09 1015.93 1016.47 1016.43 1016.43 1016.47 1016.45 1016.60 1016.69 1016.70 1016.73 1016.76 1016.74 1016.84 1016.99 1017.10 1017.20 1017.19 1017.31 1017.47 1017.41 1017.30 1017.37 1017.52 1017.67
1006.83 1007.12 1007.62 1007.86 1008.00 1008.43 1008.90 1009.49 1010.25 1011.10 1011.53 1012.12 1012.63 1013.08 1013.39 1013.63 1013.95 1014.44 1015.04 1015.54 1015.91 1016.00 1016.01 1016.08 1016.10 1016.14 1016.31 1016.24 1016.26 1016.31 1016.36 1016.80 1017.00 1017.09 1017.27 1017.29 1017.26 1017.20 1017.12 1017.12 1017.15 1017.26 1017.28
1006.49 1006.95 1007.44 1007.76 1007.82 1008.15 1008.54 1008.99 1009.66 1010.36 1011.09 1011.90 1012.50 1012.93 1013.66 1013.90 1014.47 1014.86 1015.08 1015.26 1015.50 1015.49 1015.65 1015.53 1015.59 1015.77 1015.86 1015.98 1016.09 1016.30 1016.78 1017.14 1017.28 1017.29 1017.27 1017.22 1017.13 1016.97 1016.98 1016.91 1016.92 1016.97 1017.00
1006.32 1007.09 1007.34 1007.25 1007.40 1007.74 1008.19 1008.62 1009.11 1009.96 1010.59 1011.46 1011.96 1012.44 1013.07 1013.18 1013.64 1014.12 1014.52 1014.68 1014.80 1015.12 1015.31 1015.28 1015.34 1015.49 1015.70 1016.00 1016.37 1016.75 1017.06 1017.32 1017.27 1017.28 1017.24 1017.15 1017.08 1016.99 1016.61 1016.52 1016.50 1016.56 1016.43
1006.60 1006.95 1006.99 1006.99 1007.21 1007.50 1007.78 1008.06 1008.61 1009.28 1010.17 1010.84 1011.44 1012.05 1012.49 1012.72 1013.10 1013.35 1013.52 1013.79 1014.33 1014.67 1014.96 1014.85 1015.21 1015.56 1015.88 1016.21 1016.52 1016.86 1017.11 1017.21 1017.19 1017.20 1017.21 1017.13 1017.10 1016.91 1016.58 1016.39 1016.31 1016.24 1016.17
1006.43 1006.52 1006.61 1006.80 1007.13 1007.37 1007.50 1007.77 1008.38 1009.03 1009.70 1010.31 1010.81 1011.46 1012.02 1012.23 1012.48 1012.68 1013.04 1013.40 1013.93 1014.41 1014.44 1014.62 1015.20 1015.81 1015.99 1016.20 1016.46 1016.73 1016.98 1017.07 1017.12 1017.10 1017.23 1017.18 1017.08 1016.79 1016.50 1016.39 1016.14 1015.98 1015.90
1005.76 1006.25 1006.73 1007.08 1007.28 1007.36 1007.34 1007.46 1007.89 1008.46 1009.16 1009.71 1010.30 1010.67 1011.11 1011.48 1011.83 1012.19 1012.46 1012.74 1013.67 1014.03 1014.30 1014.87 1015.35 1015.78 1016.09 1016.38 1016.65 1016.95 1017.14 1017.25 1017.19 1017.16 1017.14 1017.19 1017.10 1016.85 1016.56 1016.28 1016.03 1015.82 1015.56
1005.97 1006.38 1006.82 1007.12 1007.33 1007.34 1007.40 1007.58 1007.81 1008.19 1008.70 1009.42 1009.82 1010.10 1010.44 1010.76 1011.52 1012.06 1012.33 1012.79 1013.43 1014.16 1014.76 1015.05 1015.43 1015.84 1016.23 1016.56 1016.98 1017.25 1017.59 1017.57 1017.40 1017.43 1017.21 1017.07 1017.00 1016.70 1016.38 1016.16 1015.83 1015.56 1015.44
1006.21 1006.46 1006.80 1007.05 1007.14 1007.20 1007.29 1007.45 1007.72 1008.02 1008.71 1008.84 1009.12 1009.46 1009.98 1010.66 1011.38 1011.95 1012.32 1012.76 1013.52 1014.26 1014.82 1015.22 1015.61 1016.10 1016.45 1016.96 1017.32 1017.62 1017.72 1017.62 1017.51 1017.54 1017.39 1017.13 1016.90 1016.54 1016.29 1016.00 1015.52 1015.43 1015.11
Wind_Speed
13 12 11 8 9 8 7 7 8 11 11 12 11 10 8 6 6 7 7 7 8 6 5 6 5 4 4 5 4 4 4 4 4 3 2 2 1 2 4 5 4 2 3
15 14 14 12 10 10 10 7 7 10 11 12 8 7 8 8 8 8 7 6 7 7 5 6 4 4 5 4 4 4 3 3 4 2 1 0 3 1 1 3 4 3 3
15 15 13 12 12 12 9 8 7 9 9 7 7 7 7 5 5 6 10 8 7 6 6 5 5 6 4 2 3 4 3 3 2 3 1 1 1 3 3 3 3 5 5
17 15 14 14 14 11 7 8 7 9 9 10 8 9 10 5 5 7 10 10 8 6 6 5 4 5 5 5 5 4 4 4 4 3 3 2 2 2 3 3 5 3 5
17 15 14 12 8 8 8 9 8 11 19 21 28 21 17 9 7 10 13 11 10 8 6 6 5 7 6 6 4 2 3 2 3 3 3 3 2 3 1 2 2 3 4
14 14 8 9 9 10 8 7 9 10 15 11 6 13 14 9 9 8 10 8 8 7 6 4 5 7 6 6 5 5 5 3 2 2 1 1 1 2 2 1 1 2 4
8 8 10 10 12 7 9 9 9 10 9 7 7 7 9 7 14 15 13 9 8 7 7 5 5 5 6 3 4 5 4 5 6 5 3 4 3 5 3 2 2 2 4
8 8 10 9 10 9 10 10 9 9 8 4 1 6 9 7 17 16 15 8 7 7 6 5 7 6 5 5 5 5 6 6 7 5 6 6 7 6 5 5 5 4 4
7 8 9 11 11 10 11 10 5 9 5 5 7 9 9 7 14 16 10 7 6 5 5 6 7 7 7 6 4 3 3 2 3 11 9 11 12 13 7 3 3 3 3
7 8 9 10 11 10 10 11 5 4 5 5 7 9 9 10 11 10 7 5 6 5 5 6 12 8 8 8 5 4 2 4 1 4 3 5 6 9 12 8 4 5 3
9 10 9 8 10 11 11 8 5 3 3 4 8 6 7 7 6 11 10 5 6 5 5 4 3 9 10 11 9 6 7 3 5 3 4 3 5 3 2 1 5 5 3
8 10 11 9 8 6 9 7 5 6 8 8 7 5 5 6 10 9 10 9 7 5 4 4 5 11 11 12 8 10 9 5 3 4 3 3 3 3 1 1 2 1 0
9 9 9 7 7 7 8 7 7 6 8 7 7 6 5 4 5 11 9 10 9 4 3 5 12 13 14 10 12 11 7 4 4 2 4 3 4 4 3 3 4 4 5
7 10 6 8 5 6 4 4 5 6 7 7 7 6 5 4 5 5 4 4 6 3 3 4 7 10 8 7 6 7 5 5 5 5 3 4 2 2 1 2 2 1 2
8 7 6 5 5 6 4 2 3 5 7 7 6 7 9 7 6 8 7 5 4 6 3 2 2 3 4 5 5 6 4 3 4 3 3 3 2 1 0 3 3 2 2
5 4 5 5 6 5 5 3 11 9 8 13 12 10 4 9 14 14 12 11 11 9 2 2 3 4 5 5 4 2 1 3 2 2 3 3 3 2 0 2 2 3 3
5 4 4 7 6 6 4 6 5 5 9 8 11 15 14 11 16 15 13 10 8 7 4 4 5 4 4 2 3 3 2 1 3 4 3 3 1 0 1 2 2 2 2
4 1 4 5 5 7 7 6 6 6 5 2 9 2 11 15 16 16 14 8 1 2 3 4 4 2 2 3 3 3 2 2 2 3 3 2 2 1 2 3 2 2 2
4 3 5 4 5 5 6 8 8 7 5 4 3 7 8 9 10 11 11 4 5 5 4 5 3 3 4 4 3 2 1 1 3 3 3 2 2 1 3 1 3 2 2
3 7 3 5 5 4 3 6 7 8 8 7 5 4 5 5 4 5 4 4 4 4 3 4 4 4 3 3 4 5 5 4 3 3 2 2 2 3 2 2 2 1 2
3 2 5 3 6 6 7 5 8 7 8 8 7 8 10 8 7 6 6 6 5 2 4 5 4 5 5 5 5 5 4 3 3 2 1 2 3 3 4 3 3 3 4
2 3 3 3 3 4 4 4 6 9 8 9 6 9 17 4 6 8 8 5 4 5 5 5 5 5 5 5 5 5 3 3 3 2 3 3 3 4 3 2 2 3 3
3 0 2 2 3 4 4 4 6 7 7 8 9 9 8 7 4 5 5 5 6 5 5 5 6 5 5 5 5 4 4 3 2 1 2 3 4 4 3 2 3 3 4
3 1 0 2 2 4 4 3 4 8 8 6 9 8 8 8 5 3 4 10 7 5 6 7 6 7 6 5 5 5 4 3 3 3 4 3 4 5 4 4 5 5 5
3 3 2 3 3 3 3 2 3 5 5 9 8 9 8 7 5 6 7 8 7 8 9 7 6 8 8 10 7 6 4 5 4 3 2 3 4 7 6 5 5 4 3
0 3 3 4 4 4 3 3 4 6 7 8 10 7 6 5 9 8 8 9 9 9 9 6 9 11 10 7 7 6 3 3 3 3 3 3 4 5 5 6 9 4 3
Wind_Direction
183 186 188 179 178 190 201 199 192 172 171 172 170 161 147 137 106 116 114 110 102 100 88 83 66 61 71 74 74 72 68 87 110 294 175 228 62 77 345 344 343 9 212
186 186 190 185 182 191 208 208 187 159 170 165 151 136 126 132 128 123 115 108 111 106 98 88 79 73 51 71 74 64 80 85 117 124 278 44 80 325 311 8 352 348 223
185 186 187 186 189 195 195 190 184 153 159 118 112 121 112 120 137 136 134 121 117 126 131 122 123 101 90 70 85 85 51 25 77 122 282 104 37 35 8 356 0 345 340
187 186 185 189 193 190 175 183 171 151 127 81 23 67 94 165 197 151 126 126 132 134 142 137 146 134 115 87 74 82 61 55 32 43 43 61 58 316 66 45 350 342 337
185 186 191 184 169 165 177 182 171 139 103 105 129 145 211 171 188 175 141 150 144 141 149 156 174 148 148 140 129 130 92 71 62 50 31 44 2 10 53 284 350 306 311
181 186 154 150 160 179 175 167 154 141 126 165 143 164 167 184 169 163 124 138 141 144 152 179 163 156 170 154 129 157 159 148 116 117 196 105 255 230 262 278 273 345 322
150 143 151 159 176 149 129 140 142 127 139 129 164 156 168 148 140 134 149 140 163 159 164 161 178 187 182 174 210 210 239 231 197 175 191 213 231 217 202 236 260 239 245
141 147 158 149 132 144 138 124 139 143 133 87 94 118 134 143 152 149 166 160 171 152 163 175 164 132 151 176 185 228 241 236 236 217 203 236 234 249 198 199 199 230 290
140 153 131 138 140 142 130 133 101 116 133 157 152 146 145 155 157 167 161 159 154 137 143 140 133 144 174 180 177 237 243 253 236 224 209 241 255 265 226 181 233 200 274
100 110 136 144 141 135 130 127 123 139 152 157 156 156 161 166 178 149 135 130 133 133 128 144 147 166 177 193 186 197 219 257 348 330 304 300 291 280 292 205 217 213 198
115 121 119 127 129 130 124 122 106 120 155 132 121 137 157 157 142 135 122 132 150 154 167 166 193 175 193 201 199 199 212 208 294 295 303 319 316 323 18 24 179 167 191
114 120 122 127 133 127 129 117 131 145 133 134 124 110 113 132 138 135 121 119 108 147 183 195 188 190 212 222 214 225 229 244 265 304 299 279 218 235 302 263 290 318 212
118 114 114 95 96 106 118 124 125 142 132 137 141 140 135 127 133 143 139 116 91 108 164 181 165 188 219 239 245 240 211 220 238 254 253 241 220 186 140 86 56 33 30
101 118 119 124 118 124 121 141 141 136 142 155 149 142 136 146 147 151 148 129 121 150 182 152 185 203 218 254 270 253 207 213 205 223 216 215 173 114 110 156 131 164 103
120 128 132 137 147 143 80 58 157 160 164 164 158 154 154 170 180 157 156 163 184 219 180 165 193 223 254 262 275 263 238 234 212 206 165 181 149 118 262 172 157 174 167
141 164 141 147 143 131 137 112 42 27 181 164 152 155 182 155 155 163 167 179 205 216 142 228 240 225 237 250 264 283 81 115 127 143 144 154 152 158 40 250 198 194 207
184 197 175 156 151 153 149 149 133 31 53 53 167 166 168 169 168 166 162 176 198 158 196 211 228 241 271 306 139 97 97 88 128 103 119 116 128 234 62 287 257 192 188
168 137 127 139 147 161 167 154 145 159 155 119 32 129 172 159 161 158 151 120 113 278 209 215 235 277 196 148 131 131 163 147 129 115 127 124 105 142 309 284 159 175 215
208 174 161 157 157 173 166 161 161 162 153 133 115 61 69 92 119 129 148 149 189 222 227 236 207 180 181 163 164 160 76 93 134 110 92 61 328 265 305 283 166 196 282
204 126 160 165 160 170 189 169 166 167 149 155 151 150 141 124 143 161 186 195 207 227 265 159 145 165 139 101 84 66 70 84 76 87 84 331 307 300 311 219 186 230 277
140 201 197 183 174 184 188 192 164 169 157 167 165 165 190 166 160 170 191 205 210 176 157 145 128 103 100 82 83 83 85 92 87 91 359 340 332 328 303 219 225 241 269
166 219 197 180 184 188 195 185 155 175 172 169 175 167 170 155 168 188 203 200 158 166 181 126 108 104 99 103 96 86 72 61 70 48 349 347 345 324 308 288 294 299 308
152 311 320 187 166 218 200 212 154 189 156 173 162 158 170 190 178 187 201 175 143 155 145 112 103 94 93 89 93 105 106 94 82 350 339 334 326 325 329 297 292 305 302
145 165 99 313 274 240 219 210 162 165 162 170 157 162 171 188 193 228 180 133 138 123 99 99 104 105 90 83 80 70 59 28 2 355 19 344 330 329 321 313 307 291 286
165 167 193 201 239 248 259 214 162 164 164 159 162 160 172 180 138 134 127 122 122 106 106 106 105 105 94 85 80 75 59 36 50 347 338 334 309 298 291 295 289 302 319
139 185 192 203 199 215 214 204 162 160 169 160 152 164 166 137 133 137 132 124 113 112 112 106 102 105 96 87 89 99 93 49 31 358 322 290 281 284 289 290 295 296 241